Starlink 34870

operational
NORAD ID: 65370 Int'l Des: 2025-190 Owner: SPXS Country: US Constellation: starlink
LEOCIRCULAR

About Starlink 34870

Description loading...

Live Position

Loading 3D Globe...

Upcoming Passes

Altitude History

Altitude vs Time

uPlot chart will show altitude changes over time

Two-Line Element Set

1 65370U 25190V 26062.40501967 .00009327 00000-0 32667-3 0 9994
2 65370 53.1583 197.3233 0001033 80.7934 279.3184 15.30195357 28322
Epoch: Mar 3, 2026 • Age: 40 hours

Current Status

Altitude 478.6 km
Velocity 7.63 km/s
Sub-Earth Point 42.35°N, 164.41°W
Launch Date Aug 28, 2025
Age 0.5 years
Type internet

Technical Details

Classification Payload
Mass 575.00 kg
Dry Mass 530.00 kg
Total Mass 575.00 kg
Length 0.30 m
Diameter 4.10 m
Span 29.00 m
Shape Box + pan
Manufacturer SPXS
Bus Type Starlink V2MO
Phase Status In Orbit
Owner/State SPXS/US

Large Constellations

Loading constellations...